FW5345 Weather Reports


time (UTC)temp
C
wind
direction
speed
KPH
gust
KPH
rain 1hr
cm
rain 24hr
cm
rain mn
cm
humidity
%
barometer
mb
20260507044610 14 4 4.8 12.9 0.00 0.00 0.00 63 1019.9
20260507043036 15 333 4.8 11.3 0.00 0.00 0.00 60 1019.8
20260507041532 15 99 6.4 17.7 0.00 0.00 0.00 60 1019.7
20260507040045 15 74 1.6 8.0 0.00 0.00 0.00 60 1019.7
20260507034532 15 131 4.8 12.9 0.00 0.00 0.00 59 1019.6
20260507033035 16 2 4.8 16.1 0.00 0.00 0.00 59 1019.6
20260507024535 17 291 3.2 16.1 0.00 0.00 0.00 57 1019.7
20260507023109 17 288 8.0 25.7 0.00 0.00 0.00 55 1019.7
20260507021537 18 254 9.7 22.5 0.00 0.00 0.00 53 1019.6
20260507020037 18 288 9.7 25.7 0.00 0.00 0.00 52 1019.3
20260507014533 18 289 8.0 20.9 0.00 0.00 0.00 51 1019.2
20260507013145 19 302 11.3 29.0 0.00 0.00 0.00 49 1019.1
20260507011535 19 300 11.3 25.7 0.00 0.00 0.00 47 1019.1
20260507004531 20 300 11.3 27.4 0.00 0.00 0.00 43 1019.0
20260507003037 21 295 9.7 24.1 0.00 0.00 0.00 42 1019.0
20260507001531 21 283 9.7 25.7 0.00 0.00 0.00 42 1018.9
20260507000034 21 274 8.0 19.3 0.00 0.00 0.00 41 1018.7
20260506234536 21 292 11.3 30.6 0.00 0.00 0.00 40 1018.6
20260506233033 21 296 9.7 22.5 0.00 0.00 0.00 39 1018.5
20260506230038 22 300 11.3 32.2 0.00 0.00 0.00 40 1018.5
20260506224535 22 293 11.3 24.1 0.00 0.00 0.00 40 1018.6
20260506221532 22 291 9.7 27.4 0.00 0.00 0.00 43 1019.0
20260506220038 22 301 11.3 30.6 0.00 0.00 0.00 43 1018.9
20260506214534 21 293 12.9 27.4 0.00 0.00 0.00 43 1018.8
20260506213110 22 301 12.9 29.0 0.00 0.00 0.00 43 1018.7
20260506211534 22 287 9.7 27.4 0.00 0.00 0.00 43 1018.8
20260506210032 22 226 6.4 22.5 0.00 0.00 0.00 44 1018.9
20260506203033 21 309 11.3 22.5 0.00 0.00 0.00 46 1018.9
20260506201536 21 311 9.7 19.3 0.00 0.00 0.00 44 1018.9
20260506194532 21 249 6.4 17.7 0.00 0.00 0.00 47 1018.9
20260506193035 21 252 6.4 20.9 0.00 0.00 0.00 50 1019.1
20260506190037 20 287 8.0 22.5 0.00 0.00 0.00 52 1019.1
20260506184535 20 302 11.3 22.5 0.00 0.00 0.00 52 1018.9
20260506183028 20 300 6.4 14.5 0.00 0.00 0.00 55 1018.9
20260506181530 19 312 9.7 20.9 0.00 0.00 0.00 57 1019.0
20260506180035 19 318 12.9 25.7 0.00 0.00 0.00 56 1019.0
20260506173032 18 5 6.4 12.9 0.00 0.00 0.00 59 1018.7
20260506171554 18 5 6.4 14.5 0.00 0.00 0.00 62 1018.8
20260506170034 17 358 8.0 16.1 0.00 0.00 0.00 63 1018.8
20260506164535 17 11 6.4 16.1 0.00 0.00 0.00 64 1018.9
20260506163035 16 329 11.3 29.0 0.00 0.00 0.00 65 1019.1
20260506161531 16 329 11.3 22.5 0.00 0.00 0.00 68 1019.2
20260506160035 15 351 11.3 22.5 0.00 0.00 0.00 72 1019.1
20260506154530 14 344 6.4 17.7 0.00 0.00 0.00 75 1019.2
20260506153035 13 344 4.8 9.7 0.00 0.00 0.00 77 1019.0
20260506151535 12 83 3.2 6.4 0.00 0.00 0.00 82 1019.0
20260506144535 11 109 3.2 6.4 0.00 0.00 0.00 86 1018.9
20260506143140 10 148 3.2 6.4 0.00 0.00 0.00 91 1018.9
20260506141535 8 146 3.2 4.8 0.00 0.00 0.00 94 1018.6
20260506140037 7 177 3.2 6.4 0.00 0.00 0.00 95 1018.5
20260506134536 7 176 4.8 6.4 0.00 0.00 0.00 95 1018.3
20260506133034 6 162 4.8 8.0 0.00 0.00 0.00 95 1018.2
20260506131537 6 166 4.8 11.3 0.00 0.00 0.00 94 1018.1
20260506124537 7 157 3.2 6.4 0.00 0.00 0.00 94 1017.9
20260506123033 6 146 3.2 4.8 0.00 0.00 0.00 95 1017.7
20260506121608 6 163 4.8 6.4 0.00 0.00 0.00 95 1017.6
20260506120042 6 162 3.2 6.4 0.00 0.00 0.00 95 1017.5
20260506113035 7 146 4.8 11.3 0.00 0.00 0.00 95 1017.2
20260506111537 7 166 4.8 8.0 0.00 0.00 0.00 95 1017.1
20260506110037 7 157 4.8 6.4 0.00 0.00 0.00 94 1017.0
20260506104534 7 157 4.8 6.4 0.00 0.00 0.00 94 1016.9
20260506103109 7 164 4.8 6.4 0.00 0.00 0.00 94 1016.7
20260506094538 7 163 4.8 6.4 0.00 0.00 0.00 93 1016.6
20260506091536 8 157 4.8 6.4 0.00 0.00 0.00 93 1016.5
20260506090037 8 161 4.8 6.4 0.00 0.00 0.00 93 1016.5
20260506083151 8 148 3.2 6.4 0.00 0.00 0.00 92 1016.2
20260506081535 8 161 4.8 6.4 0.00 0.00 0.00 92 1016.2
20260506073038 9 157 4.8 6.4 0.00 0.00 0.00 91 1015.9
20260506071643 10 143 3.2 6.4 0.00 0.00 0.00 91 1015.9
20260506050108 12 136 3.2 4.8 0.00 0.00 0.00 80 1015.1